Weather History for KSPG - June, 2013

Change the Weather History Date:

Monday, June 24, 2013

  Actual Average (KTPA) Record (KTPA)
Temperature  
Mean Temperature 86 °F 83 °F  
Max Temperature 93 °F 90 °F 98 °F (1951)
Min Temperature 80 °F 76 °F 68 °F (1947)
Degree Days  
Heating Degree Days 0 0  
Month to date heating degree days 0  
Since 1 June heating degree days 0  
Since 1 July heating degree days 538  
Cooling Degree Days 22 18  
Month to date cooling degree days 408  
Year to date cooling degree days 1285  
Since 1 June cooling degree days 408  
Growing Degree Days 36 (Base 50)    
Moisture  
Dew Point 74 °F    
Average Humidity 72    
Maximum Humidity 87    
Minimum Humidity 49    
Precipitation  
Precipitation 0.00 in 0.27 in 7.11 in (2012)
Month to date precipitation 4.99  
Year to date precipitation 17.19  
Sea Level Pressure  
Sea Level Pressure 30.11 in    
Wind  
Wind Speed 11 mph (East)    
Max Wind Speed 17 mph    
Max Gust Speed -    
Visibility 10 miles    
Events Thunderstorm    
T = Trace of Precipitation, MM = Missing Value Source: NWS Daily Summary

Daily Weather History Graph

Daily Weather History Graph

Search for Another Location

Airport or City:

Trip Planner

Search our weather history database for the weather conditions in past years. The results will help you decide how hot, cold, wet, or windy it might be!

Date:

Astronomy

Jun. 24, 2013 Rise Set
Actual Time 6:36 AM EDT 8:29 PM EDT
Civil Twilight 6:09 AM EDT 8:56 PM EDT
Nautical Twilight 5:37 AM EDT 9:28 PM EDT
Astronomical Twilight 5:03 AM EDT 10:02 PM EDT
Moon 9:42 PM EDT (6/24) 7:53 AM EDT (6/24)
Length of Visible Light 14h 47m
Length of Day
13h 53m
Full, 98% of the Moon is Illuminated
Jun 24
Full
Jun 30
Last Quarter
Jul 8
New
Jul 15
First Quarter
Jul 22
Full

Hourly Weather History & Observations

Time (EDT) Temp. Heat Index Dew Point Humidity Pressure Visibility Wind Dir Wind Speed Gust Speed Precip Events Conditions
12:53 AM 82.0 °F 88.6 °F 75.0 °F 79% 30.12 in 10.0 mi SE 12.7 mph - N/A   Clear
1:53 AM 81.0 °F 86.7 °F 75.0 °F 82% 30.12 in 10.0 mi ESE 15.0 mph - N/A   Clear
2:53 AM 81.0 °F 87.3 °F 75.9 °F 85% 30.11 in 10.0 mi SE 15.0 mph - N/A   Clear
3:53 AM 81.0 °F 87.3 °F 75.9 °F 85% 30.11 in 10.0 mi SE 16.1 mph - N/A   Clear
4:53 AM 80.1 °F 85.4 °F 75.9 °F 87% 30.11 in 10.0 mi SE 12.7 mph - N/A   Clear
5:53 AM 80.1 °F 85.1 °F 75.0 °F 85% 30.11 in 10.0 mi SE 13.8 mph - N/A   Clear
6:53 AM 80.1 °F 85.1 °F 75.0 °F 85% 30.13 in 10.0 mi SE 11.5 mph - N/A   Clear
7:53 AM 81.0 °F 86.7 °F 75.0 °F 82% 30.15 in 10.0 mi SE 9.2 mph - N/A   Clear
8:53 AM 82.0 °F 88.6 °F 75.0 °F 79% 30.16 in 10.0 mi SE 6.9 mph - N/A   Clear
9:53 AM 82.9 °F 90.8 °F 75.9 °F 79% 30.17 in 10.0 mi East 5.8 mph - N/A   Clear
10:53 AM 84.9 °F 93.3 °F 75.0 °F 72% 30.18 in 10.0 mi SE 8.1 mph - N/A   Clear
11:53 AM 86.0 °F 95.1 °F 75.0 °F 70% 30.17 in 10.0 mi East 5.8 mph - N/A   Clear
12:53 PM 88.0 °F 97.5 °F 75.0 °F 65% 30.16 in 10.0 mi East 3.5 mph - N/A   Clear
1:53 PM 90.0 °F 99.0 °F 73.9 °F 59% 30.14 in 10.0 mi NE 4.6 mph - N/A   Clear
2:53 PM 90.0 °F 97.9 °F 73.0 °F 57% 30.11 in 10.0 mi ENE 4.6 mph - N/A   Clear
3:53 PM 91.0 °F 98.2 °F 72.0 °F 53% 30.09 in 10.0 mi NE 6.9 mph - N/A   Clear
4:53 PM 91.9 °F 99.5 °F 72.0 °F 52% 30.07 in 10.0 mi ENE 6.9 mph - N/A   Clear
5:53 PM 93.0 °F 100.1 °F 71.1 °F 49% 30.06 in 10.0 mi NE 3.5 mph - N/A   Clear
6:53 PM 91.0 °F 97.6 °F 71.1 °F 52% 30.05 in 10.0 mi ENE 5.8 mph - N/A   Clear
7:53 PM 89.1 °F 100.2 °F 75.9 °F 65% 30.06 in 10.0 mi North 9.2 mph - N/A   Mostly Cloudy
8:46 PM 87.1 °F 96.3 °F 75.0 °F 67% 30.07 in 10.0 mi ESE 13.8 mph - N/A Thunderstorm Overcast
8:53 PM 87.1 °F 96.3 °F 75.0 °F 67% 30.07 in 10.0 mi ESE 12.7 mph - N/A Thunderstorm Thunderstorm
9:27 PM 86.0 °F 95.1 °F 75.0 °F 70% 30.09 in 10.0 mi East 11.5 mph - N/A Thunderstorm Mostly Cloudy
9:45 PM 84.9 °F 93.3 °F 75.0 °F 72% 30.09 in 10.0 mi SSW 17.3 mph - N/A Thunderstorm Overcast
9:53 PM 84.0 °F 90.2 °F 73.0 °F 69% 30.09 in 10.0 mi WSW 11.5 mph - N/A Thunderstorm Thunderstorm
10:00 PM 82.9 °F 88.8 °F 73.0 °F 72% 30.09 in 10.0 mi West 12.7 mph - N/A Thunderstorm Thunderstorm
10:07 PM 82.9 °F 88.8 °F 73.0 °F 72% 30.10 in 10.0 mi West 10.4 mph - N/A Thunderstorm Scattered Clouds
10:39 PM 82.0 °F 87.9 °F 73.9 °F 76% 30.12 in 10.0 mi WSW 6.9 mph - N/A   Mostly Cloudy
10:53 PM 82.0 °F 88.6 °F 75.0 °F 79% 30.12 in 10.0 mi WNW 6.9 mph - N/A   Overcast
11:04 PM 82.9 °F 90.2 °F 75.0 °F 77% 30.12 in 10.0 mi NW 5.8 mph - N/A Thunderstorm Overcast
11:29 PM 82.0 °F 89.4 °F 75.9 °F 82% 30.13 in 10.0 mi NW 5.8 mph - N/A Thunderstorm Thunderstorm
11:44 PM 82.0 °F 89.4 °F 75.9 °F 82% 30.13 in 10.0 mi NNW 6.9 mph - N/A Thunderstorm Overcast
11:53 PM 82.0 °F 89.4 °F 75.9 °F 82% 30.13 in 10.0 mi North 4.6 mph - N/A Thunderstorm Overcast